Погода в Досанге

Хотите узнать прогноз погоды в Досанге? Тогда Вам сюда: Погода в Досанге

Поиск расширенной информации на нашем сайте:

Полезная информация:

Новости сайта



02.01.2020
Опубликован Долгосрочный прогноз погоды по городам России и ближнего зарубежья на январь 2020 года.
Карты: Прогноз на январь и февраль 2020 года, Сравнение прогнозируемой аномалии приземной температуры воздуха на январь 2020 года по разным моделям.




Погода в Досанге - сегодня

Время (UTC), дата Ветер
(°,м/с) 
Видим.   Явления Облачность Т
(°С)
Тd
(°С)
f(%) Тe
(°С)
Pmin
(гПа)
dP
(гПа)
Po
(мм)
O2
(г/м3)
Тmin Tmax R s Состояние
почвы
15 18.10.20 150 (ЮВ) 7{12}  20000 м    8/0 средняя, верхняя 
[Ac cast|Ci fib]
+19.9 +9.8 52 +21  1012.5  -0.9  761  284    +23.9       
18 18.10.20 140 (ЮВ) 10 км    ясно 
+11.7 +10.2 91 +12  1017.5  0.3  765  294           
21 18.10.20 360 (С) 4000 м  дымка  ясно 
+6.9 +5.9 93 +7  1017  -0.5  764  299           
00 19.10.20 090 (В) 4000 м  дымка  ясно 
+4.5 +3.9 96 +5  1017.1  0.1  764  302           
03 19.10.20 030 (СВ) 4000 м  дымка  ясно 
+3.5 +2.9 96 +4  1016.6  -0.4  764  304  +3.4        сухая 
06 19.10.20 060 (СВ) 20000 м    6/0 верхняя 
[Ci sp]
+14.7 +10.3 75 +16  1016.8  0.1  764  290  +3.1         
09 19.10.20 020 (С) 20000 м    6/0 верхняя 
[Ci fib]
+22.4 +2.3 27 +22  1015.4  -1.5  763  284           
12 19.10.20 350 (С) 20000 м    8/0 верхняя 
[Ci fib]
+23.7 -0.2 21 +24  1014.3  -1.1  762  283           
15 19.10.20 330 (СЗ) 10 км    8/0 верхняя 
[Ci sp]
+16.7 +5.1 46 +17  1014  -0.3  762  289    +23.9       
18 19.10.20 340 (С) 10 км    ясно 
+12.8 +8.8 77 +13  1013.8  -0.1  762  292           
21 19.10.20 330 (СЗ) 10 км    8/0 верхняя 
[Ci sp]
+11.8 +9.2 84 +12  1013.7  -0.1  762  293           
00 20.10.20 330 (СЗ) 6{10}  10 км    10/0 верхняя 
[Ci sp]
+13 +7.3 68 +12  1015.1  1.4  763  292           
03 20.10.20 340 (С) 10 км    10/6 600 м средняя, верхняя 
[Sc|Ac trans|Ci sp]
+9.4 +6.6 83 +7  1018.3  3.3  765  297  +9.3        сухая 
06 20.10.20 320 (СЗ) 20000 м    5/3 600 м средняя 
[Cu hum|Ac trans]
+10.5 +5.4 71 +9  1022  3.7  768  297  +8.8         
09 20.10.20 310 (СЗ) 20000 м    1/1 600 м 
[Cu hum]
+14.5 +3.6 48 +14  1022.3  0.3  768  293           
12 20.10.20 300 (СЗ) 20000 м    4/4 600 м 
[Sc diur, vesp]
+14.8 +2.6 44 +15  1022.6  0.3  769  293           
15 20.10.20 280 (З) 10 км    3/3 600 м 
[Sc diur, vesp]
+11.7 +4.1 60 +13  1022.6  769  296    +15.2       
18 20.10.20 230 (ЮЗ) 10 км    ясно 
+8.1 +4.1 76 +9  1022.7  0.1  769  300           
21 20.10.20 260 (З) 10 км    ясно 
+7.6 +3.8 77 +8  1022.9  0.2  769  301           
00 21.10.20 260 (З) 10 км    ясно 
+5.4 +3.1 85 +5  1023.4  0.6  769  304           
03 21.10.20 250 (З) 10 км    1/0 средняя 
[Ac trans]
+2.7 +1.1 89 +2  1024.4  0.9  770  307  +2.7        сухая 
06 21.10.20 280 (З) 20000 м    3/3 600 м верхняя 
[Sc diur, vesp|Ci fib]
+8.2 +1.7 64 +8  1025.8  1.4  771  301  +2.3         
09 21.10.20 270 (З) 5-11{11}  20000 м    6/6 600 м 
[Cu med, cong]
+12.8 -1.1 38 +12  1026.2  0.4  771  297           
12 21.10.20 300 (СЗ) 6-13{13}  20000 м    1/0 верхняя 
[Ci fib]
+12 -4.6 31 +11  1025.6  -0.6  771  298           
15 21.10.20 260 (З) 2{13}  10 км    8/0 верхняя 
[Ci fib]
+7.8 -2.2 49 +8  1026.4  0.8  771  303    +12.8       
Время (UTC), дата Ветер
(°,м/с) 
Видим.   Явления Облачность Т
(°С)
Тd
(°С)
f(%) Тe
(°С)
Pmin
(гПа)
dP
(гПа)
Po
(мм)
O2
(г/м3)
Тmin Tmax R s Состояние
почвы

Для получения пояснительной информации подведите курсор к названию столбца.

ПОГОДА в Досанге - архив

Всё, что Вы хотите узнать о погоде в Досанге - удобно и подробно!

Выберите нужную дату (начиная с 1 января 2019* года) и нажмите кнопку "Найти".
Будут отображены архивные сводки погоды по пункту Досанг, начиная с указанной даты.


Отображать данные в формате CSV (для использования в таблицах Excel)


Внимание! Наш архив погоды предназначен исключительно для личного некоммерческого использования в познавательных целях. Если Вам необходимы официальные справки о состоянии погоды (для производственных, юридических, коммерческих и т.п. целей), обращайтесь в органы Росгидромета.

*Примечание: данная дата относится к архиву по метеостанциям СССР (Россия, СНГ, Балтия).
Архив по метеостанциям Зарубежной Европы и Азии (кроме Китая) хранится 10 дней, по другим регионам земного шара (Китай, Африка, Америка, Австралия, Океания) - 1 день.

Досанг - район местоположения метеостанции


Название, широта, долгота, высота метеостанции:
Досанг 46.9°ш. 47.9°д. -19 м над ур. моря [Российская Федерация]

Дополнительная информация

В oтличие oт бoльшинства пoгoдных сайтoв мы публикуем пoдрoбную метеoинфoрмацию в детальнoм прoфессиoнальнoм фoрмате.

Характеристики температуры и влажнoсти вoздуха измеряются на высoте 2 м в тени вдали oт зданий и деревьев.
Скoрoсть ветра измеряется на высoте 10 м (на урoвне рoста челoвека скoрoсть ветра ниже в 1.5-2 раза). Если метеoстанция нахoдится в гoрoде или в лесу, тo скoрoсть ветра занижена на 2-4 м/с пo сравнению с oткрытым местoм. Скoрoсть ветра над акватoриями крупных рек и oзёр, а также на вершинах хoлмoв на 2-5 м/с выше, чем в oбычных услoвиях.
Атмoсфернoе давление в разных тoчках местнoсти мoжет значительнo oтличаться oт давления на метеoстанции, в зависимoсти oт услoвий рельефа (при пoдъёме на 10 м давление пoнижается примернo на 1 мм рт.ст.).